User: anonymous   Login
Location: Unspecified
(0.0000°N, 0.0000°E)
Time: 13:42:34
(UTC+00:00)
Language:

UNISAT 3 - Orbit

View from above orbital plane
View from above orbital plane
View from above satellite
View from above satellite

Ground track
Ground track

The orbit data is extracted from the following two-line orbital elements,

1 28373U 04025H   17114.90682212 +.00000170 +00000-0 +59450-4 0  9993
2 28373 098.3323 057.8729 0069434 012.6693 347.6223 14.45389954676215
Epoch (UTC): 24 April 2017 21:45:49
Eccentricity: 0.0069434
inclination: 98.3323°
perigee height: 691 km
apogee height: 790 km
right ascension of ascending node: 57.8729°
argument of perigee: 12.6693°
revolutions per day: 14.45389954
mean anomaly at epoch: 347.6223°
orbit number at epoch: 67621

The dashed part of the orbit path shows where the satellite is in the earth's shadow,  

DLR